,,Stat6,,Stat2,,Stat8,,Stat9,,Stat10,,Wind1,,Wind1,
time,status,PA1M_AVG,status,PR1M_SUM,status,RH1M_AVG,status,SR1M_AVG,status,TA1M_AVG,status,W1dAve1m,status,W1sAve1m,
2005-04-16, 00:00:00,VALID,920.321,VALID,0,VALID,100,VALID,0,VALID,20.7857,VALID,17,VALID,0.435683,
2005-04-16, 00:01:00,VALID,920.327,VALID,0,VALID,100,VALID,0.0169808,VALID,20.7983,VALID,17,VALID,0.461868,
2005-04-16, 00:02:00,VALID,920.322,VALID,0,VALID,100,VALID,0.0169808,VALID,20.815,VALID,18,VALID,0.321265,
2005-04-16, 00:03:00,VALID,920.304,VALID,0,VALID,100,VALID,0.0509425,VALID,20.8083,VALID,18,VALID,0.125,
2005-04-16, 00:04:00,VALID,920.301,VALID,0,VALID,100,VALID,0,VALID,20.7986,VALID,18,VALID,0.422619,
2005-04-16, 00:05:00,VALID,920.301,VALID,0,VALID,100,VALID,0,VALID,20.8247,VALID,18,VALID,0.206759,
2005-04-16, 00:06:00,VALID,920.292,VALID,0,VALID,100,VALID,0.0169808,VALID,20.8241,VALID,18,VALID,0.0792683,
2005-04-16, 00:07:00,VALID,920.292,VALID,0,VALID,100,VALID,0,VALID,20.8276,VALID,18,VALID,0,
2005-04-16, 00:08:00,VALID,920.285,VALID,0,VALID,100,VALID,0,VALID,20.8306,VALID,18,VALID,0,
2005-04-16, 00:09:00,VALID,920.282,VALID,0,VALID,100,VALID,0.0169808,VALID,20.8467,VALID,18,VALID,0,
2005-04-16, 00:10:00,VALID,920.283,VALID,0,VALID,100,VALID,0.0169808,VALID,20.8529,VALID,18,VALID,0,
2005-04-16, 00:11:00,VALID,920.287,VALID,0,VALID,100,VALID,0.0169808,VALID,20.8632,VALID,18,VALID,0,
2005-04-16, 00:12:00,VALID,920.294,VALID,0,VALID,100,VALID,0.0339617,VALID,20.8621,VALID,18,VALID,0.26391,
2005-04-16, 00:13:00,VALID,920.289,VALID,0,VALID,100,VALID,0,VALID,20.8696,VALID,18,VALID,0.121003,
2005-04-16, 00:14:00,VALID,920.298,VALID,0,VALID,100,VALID,0,VALID,20.8688,VALID,18,VALID,0.0896484,
2005-04-16, 00:15:00,VALID,920.295,VALID,0,VALID,100,VALID,0,VALID,20.8817,VALID,18,VALID,0.20122,
2005-04-16, 00:16:00,VALID,920.302,VALID,0,VALID,100,VALID,0.0169808,VALID,20.9086,VALID,18,VALID,0.361506,
2005-04-16, 00:17:00,VALID,920.297,VALID,0,VALID,100,VALID,0.0169808,VALID,20.8756,VALID,18,VALID,0.490734,
2005-04-16, 00:18:00,VALID,920.302,VALID,0,VALID,100,VALID,0,VALID,20.8532,VALID,34,VALID,0.505859,
2005-04-16, 00:19:00,VALID,920.286,VALID,0,VALID,100,VALID,0.0509425,VALID,20.8403,VALID,36,VALID,0.317909,
2005-04-16, 00:20:00,VALID,920.289,VALID,0,VALID,100,VALID,-0.0849042,VALID,20.8324,VALID,36,VALID,0.26875,
2005-04-16, 00:21:00,VALID,920.287,VALID,0,VALID,100,VALID,-0.0849042,VALID,20.826,VALID,36,VALID,0.193004,
2005-04-16, 00:22:00,VALID,920.268,VALID,0,VALID,100,VALID,-0.0849042,VALID,20.8265,VALID,36,VALID,0.0534157,
2005-04-16, 00:23:00,VALID,920.256,VALID,0,VALID,100,VALID,-0.101885,VALID,20.8193,VALID,36,VALID,0.230183,
2005-04-16, 00:24:00,VALID,920.234,VALID,0,VALID,100,VALID,-0.101885,VALID,20.8322,VALID,36,VALID,0.155717,
2005-04-16, 00:25:00,VALID,920.219,VALID,0,VALID,100,VALID,-0.101885,VALID,20.8034,VALID,36,VALID,0.332127,
2005-04-16, 00:26:00,VALID,920.196,VALID,0,VALID,100,VALID,-0.101885,VALID,20.784,VALID,36,VALID,0.481898,
2005-04-16, 00:27:00,VALID,920.183,VALID,0,VALID,100,VALID,-0.101885,VALID,20.7609,VALID,36,VALID,0.661966,
2005-04-16, 00:28:00,VALID,920.168,VALID,0,VALID,100,VALID,-0.101885,VALID,20.7547,VALID,36,VALID,0.65407,
2005-04-16, 00:29:00,VALID,920.162,VALID,0,VALID,100,VALID,-0.101885,VALID,20.7482,VALID,36,VALID,0.307227,
2005-04-16, 00:30:00,VALID,920.162,VALID,0,VALID,100,VALID,-0.101885,VALID,20.7318,VALID,36,VALID,0.254278,
2005-04-16, 00:31:00,VALID,920.163,VALID,0,VALID,100,VALID,-0.101885,VALID,20.7097,VALID,36,VALID,0.228924,
2005-04-16, 00:32:00,VALID,920.158,VALID,0,VALID,100,VALID,-0.0849042,VALID,20.6968,VALID,36,VALID,0.0777244,
2005-04-16, 00:33:00,VALID,920.146,VALID,0,VALID,100,VALID,-0.0849042,VALID,20.6868,VALID,36,VALID,0.189631,
2005-04-16, 00:34:00,VALID,920.121,VALID,0,VALID,100,VALID,-0.101885,VALID,20.6772,VALID,36,VALID,0.359947,
2005-04-16, 00:35:00,VALID,920.095,VALID,0,VALID,100,VALID,0.0169808,VALID,20.6592,VALID,60,VALID,0.472124,
2005-04-16, 00:36:00,VALID,920.066,VALID,0,VALID,100,VALID,0.0339617,VALID,20.6697,VALID,70,VALID,0.40625,
2005-04-16, 00:37:00,VALID,920.031,VALID,0,VALID,100,VALID,0.0169808,VALID,20.65,VALID,78,VALID,0.414773,
2005-04-16, 00:38:00,VALID,920.001,VALID,0,VALID,100,VALID,0.0509425,VALID,20.6532,VALID,96,VALID,0.489025,
2005-04-16, 00:39:00,VALID,919.979,VALID,0,VALID,100,VALID,0,VALID,20.6463,VALID,110,VALID,0.751953,
2005-04-16, 00:40:00,VALID,919.975,VALID,0,VALID,100,VALID,0.0339617,VALID,20.6304,VALID,97,VALID,0.551847,
2005-04-16, 00:41:00,VALID,919.939,VALID,0,VALID,100,VALID,0.0679233,VALID,20.6204,VALID,78,VALID,0.322173,
2005-04-16, 00:42:00,VALID,919.929,VALID,0,VALID,100,VALID,0.0339617,VALID,20.621,VALID,78,VALID,0.456659,
2005-04-16, 00:43:00,VALID,919.912,VALID,0,VALID,100,VALID,0.0169808,VALID,20.611,VALID,79,VALID,0.308966,
2005-04-16, 00:44:00,VALID,919.905,VALID,0,VALID,100,VALID,0.0339617,VALID,20.6207,VALID,80,VALID,0.19779,
2005-04-16, 00:45:00,VALID,919.885,VALID,0,VALID,100,VALID,0.0169808,VALID,20.6145,VALID,80,VALID,0.237926,
2005-04-16, 00:46:00,VALID,919.868,VALID,0,VALID,100,VALID,0.0679233,VALID,20.5984,VALID,80,VALID,0.0851935,
2005-04-16, 00:47:00,VALID,919.848,VALID,0,VALID,100,VALID,0,VALID,20.6048,VALID,80,VALID,0,
2005-04-16, 00:48:00,VALID,919.82,VALID,0,VALID,100,VALID,0,VALID,20.6013,VALID,80,VALID,0,
2005-04-16, 00:49:00,VALID,919.802,VALID,0,VALID,100,VALID,0,VALID,20.6177,VALID,80,VALID,0.10831,
2005-04-16, 00:50:00,VALID,919.774,VALID,0,VALID,100,VALID,0.0169808,VALID,20.6274,VALID,80,VALID,0.151215,
2005-04-16, 00:51:00,VALID,919.757,VALID,0,VALID,100,VALID,0.0169808,VALID,20.6465,VALID,37,VALID,0.515997,
2005-04-16, 00:52:00,VALID,919.742,VALID,0,VALID,100,VALID,0.0339617,VALID,20.6734,VALID,29,VALID,0.450893,
2005-04-16, 00:53:00,VALID,919.729,VALID,0,VALID,100,VALID,0.0169808,VALID,20.6664,VALID,29,VALID,0.543924,
2005-04-16, 00:54:00,VALID,919.732,VALID,0,VALID,100,VALID,0.0169808,VALID,20.6662,VALID,29,VALID,0.549352,
2005-04-16, 00:55:00,VALID,919.723,VALID,0,VALID,100,VALID,0.0339617,VALID,20.6532,VALID,29,VALID,0.520139,
2005-04-16, 00:56:00,VALID,919.72,VALID,0,VALID,100,VALID,0.0509425,VALID,20.6662,VALID,29,VALID,0.490513,
2005-04-16, 00:57:00,VALID,919.698,VALID,0,VALID,100,VALID,0.0169808,VALID,20.6697,VALID,32,VALID,0.50705,
2005-04-16, 00:58:00,VALID,919.663,VALID,0,VALID,100,VALID,0,VALID,20.6433,VALID,34,VALID,0.487424,
2005-04-16, 00:59:00,VALID,919.633,VALID,0,VALID,100,VALID,0.0169808,VALID,20.6409,VALID,34,VALID,0.251674,
2005-04-16, 01:00:00,VALID,919.619,VALID,0,VALID,100,VALID,0.0169808,VALID,20.6301,VALID,35,VALID,0.154535,
2005-04-16, 01:01:00,VALID,919.587,VALID,0,VALID,100,VALID,0.0339617,VALID,20.6277,VALID,34,VALID,0.235647,
2005-04-16, 01:02:00,VALID,919.567,VALID,0,VALID,100,VALID,0.0169808,VALID,20.611,VALID,34,VALID,0.0149148,
2005-04-16, 01:03:00,VALID,919.55,VALID,0,VALID,100,VALID,0.0849042,VALID,20.621,VALID,34,VALID,0,
2005-04-16, 01:04:00,VALID,919.531,VALID,0,VALID,100,VALID,0.0169808,VALID,20.615,VALID,34,VALID,0,
2005-04-16, 01:05:00,VALID,919.527,VALID,0,VALID,100,VALID,0.0339617,VALID,20.6113,VALID,34,VALID,0,
2005-04-16, 01:06:00,VALID,919.522,VALID,0,VALID,100,VALID,0.0169808,VALID,20.5881,VALID,34,VALID,0,
2005-04-16, 01:07:00,VALID,919.524,VALID,0,VALID,100,VALID,0,VALID,20.5819,VALID,34,VALID,0,
2005-04-16, 01:08:00,VALID,919.53,VALID,0,VALID,100,VALID,0.0169808,VALID,20.5949,VALID,34,VALID,0,
2005-04-16, 01:09:00,VALID,919.538,VALID,0,VALID,100,VALID,0.0339617,VALID,20.6075,VALID,34,VALID,0,
2005-04-16, 01:10:00,VALID,919.551,VALID,0,VALID,100,VALID,0.0339617,VALID,20.614,VALID,34,VALID,0,
2005-04-16, 01:11:00,VALID,919.553,VALID,0,VALID,100,VALID,0.0339617,VALID,20.6115,VALID,34,VALID,0,
2005-04-16, 01:12:00,VALID,919.559,VALID,0,VALID,100,VALID,0.0339617,VALID,20.6013,VALID,23,VALID,0.22218,
2005-04-16, 01:13:00,VALID,919.573,VALID,0,VALID,100,VALID,0.0509425,VALID,20.5951,VALID,334,VALID,0.296528,
2005-04-16, 01:14:00,VALID,919.573,VALID,0,VALID,100,VALID,0,VALID,20.5951,VALID,334,VALID,0.196584,
2005-04-16, 01:15:00,VALID,919.576,VALID,0,VALID,100,VALID,0,VALID,20.6086,VALID,333,VALID,0.119048,
2005-04-16, 01:16:00,VALID,919.569,VALID,0,VALID,100,VALID,0.0169808,VALID,20.608,VALID,328,VALID,0.0943216,
2005-04-16, 01:17:00,VALID,919.568,VALID,0,VALID,100,VALID,0,VALID,20.6011,VALID,328,VALID,0,
2005-04-16, 01:18:00,VALID,919.58,VALID,0,VALID,100,VALID,0.0339617,VALID,20.6107,VALID,328,VALID,0,
2005-04-16, 01:19:00,VALID,919.572,VALID,0,VALID,100,VALID,0.0339617,VALID,20.6142,VALID,328,VALID,0,
2005-04-16, 01:20:00,VALID,919.562,VALID,0,VALID,100,VALID,0,VALID,20.6277,VALID,328,VALID,0,
2005-04-16, 01:21:00,VALID,919.55,VALID,0,VALID,100,VALID,0.0509425,VALID,20.6078,VALID,328,VALID,0,
2005-04-16, 01:22:00,VALID,919.554,VALID,0,VALID,100,VALID,0.0509425,VALID,20.614,VALID,328,VALID,0,
2005-04-16, 01:23:00,VALID,919.536,VALID,0,VALID,100,VALID,0.0509425,VALID,20.6142,VALID,328,VALID,0,
2005-04-16, 01:24:00,VALID,919.535,VALID,0,VALID,100,VALID,0.0509425,VALID,20.6279,VALID,328,VALID,0,
2005-04-16, 01:25:00,VALID,919.526,VALID,0,VALID,100,VALID,0.0509425,VALID,20.6182,VALID,328,VALID,0,
2005-04-16, 01:26:00,VALID,919.508,VALID,0,VALID,100,VALID,0.0509425,VALID,20.6045,VALID,328,VALID,0,
2005-04-16, 01:27:00,VALID,919.5,VALID,0,VALID,100,VALID,0.0509425,VALID,20.5978,VALID,328,VALID,0,
2005-04-16, 01:28:00,VALID,919.476,VALID,0,VALID,100,VALID,0.0339617,VALID,20.6277,VALID,328,VALID,0.014881,
2005-04-16, 01:29:00,VALID,919.468,VALID,0,VALID,100,VALID,0.0339617,VALID,20.6175,VALID,328,VALID,0.0664063,
2005-04-16, 01:30:00,VALID,919.433,VALID,0,VALID,100,VALID,0.0339617,VALID,20.6107,VALID,328,VALID,0,
2005-04-16, 01:31:00,VALID,919.403,VALID,0,VALID,100,VALID,0.0169808,VALID,20.6048,VALID,328,VALID,0,
2005-04-16, 01:32:00,VALID,919.375,VALID,0,VALID,100,VALID,0.0679233,VALID,20.5984,VALID,328,VALID,0.0503472,
2005-04-16, 01:33:00,VALID,919.337,VALID,0,VALID,100,VALID,0.0169808,VALID,20.586,VALID,328,VALID,0.0665838,
2005-04-16, 01:34:00,VALID,919.319,VALID,0,VALID,100,VALID,0,VALID,20.586,VALID,328,VALID,0.0913881,
2005-04-16, 01:35:00,VALID,919.286,VALID,0,VALID,100,VALID,-0.101885,VALID,20.5681,VALID,328,VALID,0.0274346,
2005-04-16, 01:36:00,VALID,919.255,VALID,0,VALID,100,VALID,-0.0849042,VALID,20.5708,VALID,328,VALID,0.000887784,
2005-04-16, 01:37:00,VALID,919.232,VALID,0,VALID,100,VALID,-0.101885,VALID,20.5679,VALID,328,VALID,0.0111607,
2005-04-16, 01:38:00,VALID,919.198,VALID,0,VALID,100,VALID,-0.101885,VALID,20.581,VALID,322,VALID,0.130149,
2005-04-16, 01:39:00,VALID,919.176,VALID,0,VALID,100,VALID,-0.101885,VALID,20.5681,VALID,288,VALID,0.237216,
2005-04-16, 01:40:00,VALID,919.171,VALID,0,VALID,100,VALID,-0.101885,VALID,20.5711,VALID,288,VALID,0.188227,
2005-04-16, 01:41:00,VALID,919.16,VALID,0,VALID,100,VALID,-0.0849042,VALID,20.5746,VALID,288,VALID,0.111737,
2005-04-16, 01:42:00,VALID,919.134,VALID,0,VALID,100,VALID,-0.118866,VALID,20.5714,VALID,288,VALID,0.0446948,
2005-04-16, 01:43:00,VALID,919.122,VALID,0,VALID,100,VALID,-0.101885,VALID,20.5714,VALID,288,VALID,0.0979421,
2005-04-16, 01:44:00,VALID,919.105,VALID,0,VALID,100,VALID,-0.0849042,VALID,20.5875,VALID,288,VALID,0,
2005-04-16, 01:45:00,VALID,919.093,VALID,0,VALID,100,VALID,-0.0679233,VALID,20.6004,VALID,288,VALID,0.000545058,
2005-04-16, 01:46:00,VALID,919.069,VALID,0,VALID,100,VALID,-0.101885,VALID,20.6002,VALID,288,VALID,0.243459,
2005-04-16, 01:47:00,VALID,919.053,VALID,0,VALID,100,VALID,-0.0849042,VALID,20.5932,VALID,290,VALID,0.323539,
2005-04-16, 01:48:00,VALID,919.025,VALID,0,VALID,100,VALID,-0.101885,VALID,20.6069,VALID,292,VALID,0.359557,
2005-04-16, 01:49:00,VALID,919.003,VALID,0,VALID,100,VALID,-0.0849042,VALID,20.5964,VALID,357,VALID,0.579687,
2005-04-16, 01:50:00,VALID,918.984,VALID,0,VALID,100,VALID,-0.0849042,VALID,20.594,VALID,12,VALID,0.407158,
2005-04-16, 01:51:00,VALID,918.974,VALID,0,VALID,100,VALID,-0.0849042,VALID,20.6037,VALID,12,VALID,0.276215,
2005-04-16, 01:52:00,VALID,918.975,VALID,0,VALID,100,VALID,-0.0849042,VALID,20.6101,VALID,12,VALID,0.0046503,
2005-04-16, 01:53:00,VALID,918.976,VALID,0,VALID,100,VALID,-0.101885,VALID,20.6166,VALID,12,VALID,0,
2005-04-16, 01:54:00,VALID,918.986,VALID,0,VALID,100,VALID,-0.0679233,VALID,20.6257,VALID,12,VALID,0,
2005-04-16, 01:55:00,VALID,918.997,VALID,0,VALID,100,VALID,-0.0849042,VALID,20.6325,VALID,12,VALID,0,
2005-04-16, 01:56:00,VALID,919.009,VALID,0,VALID,100,VALID,-0.101885,VALID,20.6362,VALID,12,VALID,0,
2005-04-16, 01:57:00,VALID,919.01,VALID,0,VALID,100,VALID,-0.101885,VALID,20.6392,VALID,12,VALID,0,
2005-04-16, 01:58:00,VALID,918.989,VALID,0,VALID,100,VALID,-0.0849042,VALID,20.6524,VALID,12,VALID,0,
2005-04-16, 01:59:00,VALID,918.983,VALID,0,VALID,100,VALID,-0.101885,VALID,20.6454,VALID,12,VALID,0,
2005-04-16, 02:00:00,VALID,918.962,VALID,0,VALID,100,VALID,-0.101885,VALID,20.6618,VALID,12,VALID,0.0882813,
2005-04-16, 02:01:00,VALID,918.948,VALID,0,VALID,100,VALID,-0.0509425,VALID,20.6747,VALID,12,VALID,0.096875,
2005-04-16, 02:02:00,VALID,918.922,VALID,0,VALID,100,VALID,-0.0849042,VALID,20.6903,VALID,12,VALID,0,
2005-04-16, 02:03:00,VALID,918.908,VALID,0,VALID,100,VALID,-0.0679233,VALID,20.7003,VALID,12,VALID,0,
2005-04-16, 02:04:00,VALID,918.887,VALID,0,VALID,100,VALID,-0.0849042,VALID,20.7191,VALID,12,VALID,0,
2005-04-16, 02:05:00,VALID,918.879,VALID,0,VALID,100,VALID,0.0169808,VALID,20.7181,VALID,12,VALID,0,
2005-04-16, 02:06:00,VALID,918.869,VALID,0,VALID,100,VALID,0,VALID,20.7019,VALID,12,VALID,0.0282939,
2005-04-16, 02:07:00,VALID,918.852,VALID,0,VALID,100,VALID,0.0509425,VALID,20.6987,VALID,12,VALID,0.0418527,
2005-04-16, 02:08:00,VALID,918.858,VALID,0,VALID,100,VALID,0.0339617,VALID,20.6955,VALID,12,VALID,0.154721,
2005-04-16, 02:09:00,VALID,918.85,VALID,0,VALID,100,VALID,0.0679233,VALID,20.7019,VALID,12,VALID,0.121094,
2005-04-16, 02:10:00,VALID,918.856,VALID,0,VALID,100,VALID,0.0679233,VALID,20.6756,VALID,12,VALID,0.128018,
2005-04-16, 02:11:00,VALID,918.854,VALID,0,VALID,100,VALID,0,VALID,20.6662,VALID,12,VALID,0.155362,
2005-04-16, 02:12:00,VALID,918.851,VALID,0,VALID,100,VALID,0,VALID,20.6597,VALID,12,VALID,0.000558036,
2005-04-16, 02:13:00,VALID,918.872,VALID,0,VALID,100,VALID,0.0339617,VALID,20.6438,VALID,12,VALID,0.104048,
2005-04-16, 02:14:00,VALID,918.868,VALID,0,VALID,100,VALID,0.0339617,VALID,20.621,VALID,12,VALID,0.137173,
2005-04-16, 02:15:00,VALID,918.871,VALID,0,VALID,100,VALID,0.0169808,VALID,20.6045,VALID,12,VALID,0.17152,
2005-04-16, 02:16:00,VALID,918.865,VALID,0,VALID,100,VALID,0,VALID,20.5984,VALID,12,VALID,0.0582217,
2005-04-16, 02:17:00,VALID,918.866,VALID,0,VALID,100,VALID,0,VALID,20.6083,VALID,12,VALID,0,
2005-04-16, 02:18:00,VALID,918.867,VALID,0,VALID,100,VALID,0.0509425,VALID,20.6086,VALID,12,VALID,0.0574128,
2005-04-16, 02:19:00,VALID,918.849,VALID,0,VALID,100,VALID,0,VALID,20.615,VALID,12,VALID,0.271019,
2005-04-16, 02:20:00,VALID,918.853,VALID,0,VALID,100,VALID,-0.0679233,VALID,20.6483,VALID,12,VALID,0.313802,
2005-04-16, 02:21:00,VALID,918.839,VALID,0,VALID,100,VALID,-0.0849042,VALID,20.6446,VALID,12,VALID,0.412348,
2005-04-16, 02:22:00,VALID,918.829,VALID,0,VALID,100,VALID,-0.0849042,VALID,20.6513,VALID,12,VALID,0.261242,
2005-04-16, 02:23:00,VALID,918.82,VALID,0,VALID,100,VALID,-0.101885,VALID,20.6806,VALID,12,VALID,0.30593,
2005-04-16, 02:24:00,VALID,918.8,VALID,0,VALID,100,VALID,-0.101885,VALID,20.668,VALID,12,VALID,0.386896,
2005-04-16, 02:25:00,VALID,918.798,VALID,0,VALID,100,VALID,-0.0849042,VALID,20.6456,VALID,12,VALID,0.0459449,
2005-04-16, 02:26:00,VALID,918.796,VALID,0,VALID,100,VALID,-0.0849042,VALID,20.626,VALID,12,VALID,0.0598366,
2005-04-16, 02:27:00,VALID,918.791,VALID,0,VALID,100,VALID,-0.0679233,VALID,20.6325,VALID,12,VALID,0.0644531,
2005-04-16, 02:28:00,VALID,918.802,VALID,0,VALID,100,VALID,-0.0679233,VALID,20.6325,VALID,12,VALID,0.215104,
2005-04-16, 02:29:00,VALID,918.789,VALID,0,VALID,100,VALID,-0.0849042,VALID,20.6166,VALID,12,VALID,0.0327744,
2005-04-16, 02:30:00,VALID,918.797,VALID,0,VALID,100,VALID,-0.101885,VALID,20.6166,VALID,12,VALID,0,
2005-04-16, 02:31:00,VALID,918.784,VALID,0,VALID,100,VALID,-0.101885,VALID,20.6161,VALID,12,VALID,0,
2005-04-16, 02:32:00,VALID,918.771,VALID,0,VALID,100,VALID,-0.118866,VALID,20.6198,VALID,12,VALID,0,
2005-04-16, 02:33:00,VALID,918.754,VALID,0,VALID,100,VALID,-0.101885,VALID,20.5964,VALID,12,VALID,0,
2005-04-16, 02:34:00,VALID,918.746,VALID,0,VALID,100,VALID,-0.0509425,VALID,20.6106,VALID,12,VALID,0.0456032,
2005-04-16, 02:35:00,VALID,918.725,VALID,0,VALID,100,VALID,-0.101885,VALID,20.5967,VALID,12,VALID,0.110899,
2005-04-16, 02:36:00,VALID,918.697,VALID,0,VALID,100,VALID,-0.0679233,VALID,20.5741,VALID,12,VALID,0.0411086,
2005-04-16, 02:37:00,VALID,918.663,VALID,0,VALID,100,VALID,-0.0339617,VALID,20.5773,VALID,12,VALID,0.0165334,
2005-04-16, 02:38:00,VALID,918.634,VALID,0,VALID,100,VALID,-0.0679233,VALID,20.5934,VALID,12,VALID,0,
2005-04-16, 02:39:00,VALID,918.605,VALID,0,VALID,100,VALID,-0.0339617,VALID,20.5932,VALID,12,VALID,0.127841,
2005-04-16, 02:40:00,VALID,918.575,VALID,0,VALID,100,VALID,-0.0849042,VALID,20.5934,VALID,12,VALID,0.169922,
2005-04-16, 02:41:00,VALID,918.545,VALID,0,VALID,100,VALID,-0.0849042,VALID,20.5706,VALID,12,VALID,0,
2005-04-16, 02:42:00,VALID,918.525,VALID,0,VALID,100,VALID,-0.0339617,VALID,20.577,VALID,12,VALID,0.00090843,
2005-04-16, 02:43:00,VALID,918.523,VALID,0,VALID,100,VALID,-0.0849042,VALID,20.5674,VALID,12,VALID,0.117188,
2005-04-16, 02:44:00,VALID,918.503,VALID,0,VALID,100,VALID,-0.101885,VALID,20.5574,VALID,12,VALID,0.23165,
2005-04-16, 02:45:00,VALID,918.493,VALID,0,VALID,100,VALID,-0.0679233,VALID,20.5569,VALID,14,VALID,0.425868,
2005-04-16, 02:46:00,VALID,918.482,VALID,0,VALID,100,VALID,-0.0339617,VALID,20.5547,VALID,47,VALID,0.579928,
2005-04-16, 02:47:00,VALID,918.487,VALID,0,VALID,100,VALID,-0.0509425,VALID,20.5482,VALID,54,VALID,0.644159,
2005-04-16, 02:48:00,VALID,918.49,VALID,0,VALID,100,VALID,-0.0679233,VALID,20.5286,VALID,72,VALID,0.702431,
2005-04-16, 02:49:00,VALID,918.488,VALID,0,VALID,100,VALID,-0.0679233,VALID,20.5162,VALID,82,VALID,0.891897,
2005-04-16, 02:50:00,VALID,918.489,VALID,0,VALID,100,VALID,-0.0339617,VALID,20.4931,VALID,67,VALID,0.797066,
2005-04-16, 02:51:00,VALID,918.502,VALID,0,VALID,100,VALID,-0.0509425,VALID,20.4938,VALID,64,VALID,0.608594,
2005-04-16, 02:52:00,VALID,918.505,VALID,0,VALID,100,VALID,-0.0339617,VALID,20.4901,VALID,65,VALID,0.490734,
2005-04-16, 02:53:00,VALID,918.514,VALID,0,VALID,100,VALID,-0.0679233,VALID,20.464,VALID,80,VALID,0.514535,
2005-04-16, 02:54:00,VALID,918.525,VALID,0,VALID,100,VALID,-0.0509425,VALID,20.4411,VALID,86,VALID,0.372337,
2005-04-16, 02:55:00,VALID,918.552,VALID,0,VALID,100,VALID,0,VALID,20.4417,VALID,93,VALID,0.381288,
2005-04-16, 02:56:00,VALID,918.587,VALID,0,VALID,100,VALID,-0.0339617,VALID,20.4414,VALID,96,VALID,0.247852,
2005-04-16, 02:57:00,VALID,918.607,VALID,0,VALID,100,VALID,-0.0509425,VALID,20.4312,VALID,96,VALID,0.0307292,
2005-04-16, 02:58:00,VALID,918.625,VALID,0,VALID,100,VALID,-0.0339617,VALID,20.4414,VALID,96,VALID,0.0012429,
2005-04-16, 02:59:00,VALID,918.656,VALID,0,VALID,100,VALID,0,VALID,20.4608,VALID,96,VALID,0.0356889,
2005-04-16, 03:00:00,VALID,918.672,VALID,0,VALID,100,VALID,-0.0509425,VALID,20.474,VALID,96,VALID,0.0158155,
2005-04-16, 03:01:00,VALID,918.687,VALID,0,VALID,100,VALID,-0.0339617,VALID,20.4869,VALID,96,VALID,0.0046503,
2005-04-16, 03:02:00,VALID,918.705,VALID,0,VALID,100,VALID,-0.0169808,VALID,20.506,VALID,96,VALID,0,
2005-04-16, 03:03:00,VALID,918.711,VALID,0,VALID,100,VALID,-0.0679233,VALID,20.5224,VALID,96,VALID,0,
2005-04-16, 03:04:00,VALID,918.739,VALID,0,VALID,100,VALID,-0.0849042,VALID,20.5189,VALID,96,VALID,0.0737424,
2005-04-16, 03:05:00,VALID,918.74,VALID,0,VALID,100,VALID,-0.0339617,VALID,20.5321,VALID,96,VALID,0.189024,
2005-04-16, 03:06:00,VALID,918.764,VALID,0,VALID,100,VALID,-0.0849042,VALID,20.5254,VALID,96,VALID,0.168968,
2005-04-16, 03:07:00,VALID,918.773,VALID,0,VALID,100,VALID,-0.0849042,VALID,20.5221,VALID,96,VALID,0.18892,
2005-04-16, 03:08:00,VALID,918.795,VALID,0.2,VALID,100,VALID,-0.0339617,VALID,20.5152,VALID,96,VALID,0.0809832,
2005-04-16, 03:09:00,VALID,918.819,VALID,0,VALID,100,VALID,-0.0509425,VALID,20.5187,VALID,96,VALID,0,
2005-04-16, 03:10:00,VALID,918.84,VALID,0,VALID,100,VALID,-0.0849042,VALID,20.5289,VALID,96,VALID,0,
2005-04-16, 03:11:00,VALID,918.863,VALID,0,VALID,100,VALID,0,VALID,20.5189,VALID,96,VALID,0,
2005-04-16, 03:12:00,VALID,918.89,VALID,0,VALID,100,VALID,-0.0509425,VALID,20.5256,VALID,96,VALID,0,
2005-04-16, 03:13:00,VALID,918.921,VALID,0,VALID,100,VALID,-0.0339617,VALID,20.5294,VALID,96,VALID,0.136806,
2005-04-16, 03:14:00,VALID,918.922,VALID,0,VALID,100,VALID,-0.0509425,VALID,20.5159,VALID,96,VALID,0.267485,
2005-04-16, 03:15:00,VALID,918.941,VALID,0,VALID,100,VALID,-0.0679233,VALID,20.5261,VALID,96,VALID,0.369234,
2005-04-16, 03:16:00,VALID,918.93,VALID,0,VALID,100,VALID,-0.0509425,VALID,20.5351,VALID,99,VALID,0.371804,
2005-04-16, 03:17:00,VALID,918.944,VALID,0.2,VALID,100,VALID,-0.0849042,VALID,20.5289,VALID,99,VALID,0.25279,
2005-04-16, 03:18:00,VALID,918.951,VALID,0,VALID,100,VALID,-0.0679233,VALID,20.5256,VALID,99,VALID,0.13151,
2005-04-16, 03:19:00,VALID,918.946,VALID,0,VALID,100,VALID,-0.0509425,VALID,20.5165,VALID,99,VALID,0.345567,
2005-04-16, 03:20:00,VALID,918.936,VALID,0,VALID,100,VALID,0,VALID,20.4918,VALID,101,VALID,0.489169,
2005-04-16, 03:21:00,VALID,918.919,VALID,0,VALID,100,VALID,0.0339617,VALID,20.4824,VALID,106,VALID,0.397321,
2005-04-16, 03:22:00,VALID,918.923,VALID,0,VALID,100,VALID,0,VALID,20.4955,VALID,77,VALID,0.436257,
2005-04-16, 03:23:00,VALID,918.905,VALID,0,VALID,100,VALID,0,VALID,20.4821,VALID,55,VALID,0.417969,
2005-04-16, 03:24:00,VALID,918.895,VALID,0,VALID,100,VALID,0.0169808,VALID,20.4794,VALID,80,VALID,0.563072,
2005-04-16, 03:25:00,VALID,918.893,VALID,0,VALID,100,VALID,0,VALID,20.46,VALID,93,VALID,0.500178,
2005-04-16, 03:26:00,VALID,918.878,VALID,0.2,VALID,100,VALID,0.0169808,VALID,20.4471,VALID,98,VALID,0.441667,
2005-04-16, 03:27:00,VALID,918.883,VALID,0,VALID,100,VALID,0,VALID,20.4506,VALID,99,VALID,0.181868,
2005-04-16, 03:28:00,VALID,918.88,VALID,0,VALID,100,VALID,0.0339617,VALID,20.4536,VALID,99,VALID,0.223899,
2005-04-16, 03:29:00,VALID,918.886,VALID,0,VALID,100,VALID,0.0339617,VALID,20.4501,VALID,99,VALID,0.0134943,
2005-04-16, 03:30:00,VALID,918.89,VALID,0,VALID,100,VALID,0,VALID,20.4401,VALID,99,VALID,0.148438,
2005-04-16, 03:31:00,VALID,918.883,VALID,0,VALID,100,VALID,0.0339617,VALID,20.4595,VALID,99,VALID,0.0519622,
2005-04-16, 03:32:00,VALID,918.876,VALID,0,VALID,100,VALID,0.0509425,VALID,20.4694,VALID,99,VALID,0.160334,
2005-04-16, 03:33:00,VALID,918.875,VALID,0.2,VALID,100,VALID,0,VALID,20.4727,VALID,99,VALID,0.216493,
2005-04-16, 03:34:00,VALID,918.869,VALID,0,VALID,100,VALID,0.0339617,VALID,20.4687,VALID,99,VALID,0.220526,
2005-04-16, 03:35:00,VALID,918.871,VALID,0,VALID,100,VALID,-0.0339617,VALID,20.4998,VALID,99,VALID,0.231771,
2005-04-16, 03:36:00,VALID,918.868,VALID,0.2,VALID,100,VALID,-0.0339617,VALID,20.4971,VALID,99,VALID,0.140443,
2005-04-16, 03:37:00,VALID,918.866,VALID,0,VALID,100,VALID,-0.0679233,VALID,20.4807,VALID,99,VALID,0.152344,
2005-04-16, 03:38:00,VALID,918.88,VALID,0,VALID,100,VALID,-0.0679233,VALID,20.474,VALID,99,VALID,0.0437128,
2005-04-16, 03:39:00,VALID,918.887,VALID,0.2,VALID,100,VALID,-0.0679233,VALID,20.4938,VALID,99,VALID,0,
2005-04-16, 03:40:00,VALID,918.891,VALID,0,VALID,100,VALID,-0.0849042,VALID,20.5162,VALID,99,VALID,0,
2005-04-16, 03:41:00,VALID,918.901,VALID,0,VALID,100,VALID,-0.0679233,VALID,20.5264,VALID,99,VALID,0,
2005-04-16, 03:42:00,VALID,918.911,VALID,0.2,VALID,100,VALID,-0.101885,VALID,20.5291,VALID,99,VALID,0,
2005-04-16, 03:43:00,VALID,918.92,VALID,0,VALID,100,VALID,-0.0509425,VALID,20.503,VALID,99,VALID,0,